Hlavní strana
METAR-TAF:

METAR-TAF

Letiště :

Indianapolis, Indiana, Spojené státy americké

zeměpisná šířka: 40-01-50N, zeměpisná délka: 086-15-05W, výška: 281 m

Aktuální stav počasí

Zpráva byla vytvořena před 23 minutami, v 23:55 UTC
Východojihovýchodní vítr 4 kt
Teplota -1°C
Vlhkost vzduchu 86%
Tlak 1026 hPa
Viditelnost: 16.1 km
Jasno

METAR: KTYQ 072355Z AUTO 12004KT 10SM CLR M01/M03 A3030 RMK AO2 T10101034 10047 21010

Čas: 17:18 (00:18 UTC)


TAF: chybějící

Stav a předpovědi počasí z více než 4 000 letišť (zprávy METAR a TAF).

Červené a žluté tečky na mapě představují dostupné meteorologické stanice.

Když kurzor umístíte na tečku, zobrazí se název stanice.

Pak kliknutím zobrazíte stav a předpověď počasí.

Chcete-li změnit mapu, kliknutím na zelené tlačítko se znaménkem +mapu přiblížíte, kliknutím na zelené tlačítko se znaménkem – mapu oddálíte a kliknutím na zelené šipky přejdete na sousední mapy.


METAR-TAF: